Location: Rotheul
(50.2849°N, 11.2349°E)
Time: 09:47:48
(UTC+02:00)

ISS - Pass Details

Date: 17 May 2018
Orbit: 402 x 407 km, 51.6° (Epoch: 27 May)

Event Time Altitude Azimuth Distance (km) Brightness Sun altitude
Rises 04:11:41 0° 283° (WNW) 2,319 -0.3 -9.9°
Reaches altitude 10° 04:13:46 10° 284° (WNW) 1,459 -1.3 -9.7°
Maximum altitude 04:17:02 85° 10° (N) 410 -3.8 -9.3°
Drops below altitude 10° 04:20:18 10° 103° (ESE) 1,456 -0.6 -8.9°
Sets 04:22:23 0° 104° (ESE) 2,315 0.5 -8.7°
